Regional Weather Roundup
Issued by NWS

Home | Current Version | Previous Version | Graphics & Text | Print | Product List | Glossary Off
Versions: 1 2 3 4 5 6 7 8 9 10 11 12 13 14 15 16 17 18 19 20 21 22 23 24 25 26 27 28 29 30 31 32 33 34 35 36 37 38 39 40 41 42 43 44 45 46 47 48 49 50

956
ASUS43 KTOP 071559
RWRKS

WEATHER ROUNDUP FOR KANSAS
NATIONAL WEATHER SERVICE GOODLAND KS
1000 AM CST SUN FEB 07 2016

NOTE:  "FAIR" INDICATES FEW OR NO CLOUDS BELOW 12,000 FEET WITH NO
SIGNIFICANT WEATHER AND/OR OBSTRUCTIONS TO VISIBILITY.

KSZ001>006-013>018-027>032-041>047-071700-
NORTHWEST KANSAS

CITY           SKY/WX    TMP DP  RH WIND       PRES   REMARKS
GOODLAND       SUNNY     30  18  60 NW15      30.27R WCI  19
HAYS           SUNNY     39  23  52 NW13      30.21R WCI  32
HILL CITY      CLOUDY    37  24  59 NW14      30.22R WCI  28
RUSSELL        MOSUNNY   40  29  64 NW15      30.19R WCI  32
$$

KSZ061>065-074>080-084>089-071700-
SOUTHWEST KANSAS

CITY           SKY/WX    TMP DP  RH WIND       PRES   REMARKS
DODGE CITY     SUNNY     43  24  47 NW15      30.24R
ELKHART          N/A     42  24  49 NW7         N/A
GARDEN CITY    SUNNY     41  24  51 N20       30.24R
GREAT BEND     SUNNY     43  27  52 NW14G20   30.21R
LIBERAL        SUNNY     43  27  52 N13       30.24S
$$

KSZ066>073-081>083-090>101-071700-
SOUTHEAST KANSAS

CITY           SKY/WX    TMP DP  RH WIND       PRES   REMARKS
CHANUTE        CLOUDY    42  28  57 W5        30.09F
COFFEYVILLE    CLOUDY    42  28  57 SW8       30.13S
HUTCHINSON     MOSUNNY   48  24  39 N15       30.17R
MEDICINE LODGE   N/A     43  29  57 N9        30.18R
NEWTON         MOSUNNY   43  27  52 NW15      30.16R
PARSONS        CLOUDY    41  29  62 SW8       30.12S
WICHITA INTL   CLOUDY    46  27  47 N16       30.15R
WICHITA JABRA  CLOUDY    44  28  53 NW17      30.15R
WINFIELD       MOSUNNY   39  29  67 NW7       30.16R
$$

KSZ007>012-019>026-033>040-048>060-102>105-071700-
NORTHEAST KANSAS

CITY           SKY/WX    TMP DP  RH WIND       PRES   REMARKS
CONCORDIA      MOSUNNY   41  25  53 NW13G26   30.14R
EMPORIA        MOSUNNY   45  28  51 NW13      30.10R
LAWRENCE       MOSUNNY   43  30  60 NW14      30.07S
MANHATTAN      SUNNY     46  27  47 NW8       30.12R
OLATHE IND     MOSUNNY   43  28  55 NW15G24   30.06S
OLATHE EXE     MOSUNNY   42  27  55 NW14G20   30.05S
SALINA         SUNNY     48  26  42 NW18      30.17R
TOPEKA BILLARD SUNNY     44  28  53 W9        30.09R
TOPEKA FORBES  SUNNY     47  28  47 NW17      30.08R
$$




USA.gov is the U.S. government's official web portal to all federal, state and local government web resources and services.